STARLINK-30509, 57977

Orbit data source: Space-Track

STARLINK-30509, 57977 is a payload satellite owned by SpaceX/Seattle (US) in LEO that was launched on Sat, 30 Sep 2023 UTC via an FALCON 9 launch vehicle from the Air Force Eastern Test Range (AFETR). Payload-class satellites include a variety of spacecraft equipped with specific instruments for various scientific and technological missions. These include communications satellites like Starlink; space stations such as the ISS; scientific satellites like the Hubble; Earth observation satellites from companies like Planet Labs, Umbra, and HawkEye 360; GPS; miniature CubeSats for education and research; and military/defense satellites.

Loading next visibility...
Identifier
57977, 2023-151P
Orbit
LEO
Country
Flag of USUS
Related business
Manufacturer
SpaceX/Seattle
Mission
Operational Commercial Communications
Bus & Motor
STARLINK V2M, Unknown motor
Mass
730 kg wet, ~700 kg dry
Launch date (UTC)
2023-09-30 (3 years ago)
Launch vehicle
FALCON 9
Launch site
Air Force Eastern Test Range (AFETR)
Object type
Payload
Rocket body
Debris
Shape & HBR
Box + 2 Pan, 17.7 m
Radar Cross Section
33.884 m², Large (>1 m²)

Expand to show TLE details & history
Last TLE update: 1 day ago

TLE from 1 day ago
0 STARLINK-30509
1 57977U 23151P   26236.01413461  .00000140  00000-0  14617-4 0  9994
2 57977  43.0037 125.7165 0001942 258.8349 101.2285 15.27574563161187
Epoch: 2026-08-24T00:20Z
TLE epoch observation values (Epoch: 2026-08-24T00:20:21.230Z)
Latitude
0.00003°
Longitude
148.32615°
Altitude
483.101 km
Speed
7.626 km/s
True Right ascension
08h 22m 51s
True Declination
0° 00' 00"
Sunlit
Object was in daylight at epoch
Visualization orbit readout
Latitude
Unknown
Longitude
Unknown
Altitude
Unknown
Speed
Unknown
Apparent Right ascension
Unknown
Apparent Declination
Unknown
Sunlit
N/A
Visualization observer readout
Local Sidereal Time
00:48:01
Azimuth
Unknown
Elevation
Unknown
Doppler factor
Unknown
Orbital elements
Apogee altitude
486.343 km
Perigee altitude
483.677 km
Semi-major axis
6,863.147 km
Eccentricity
0.00019
Inclination
43.0037°
RAAN
125.7165°
Arg. of periapsis
258.8349°
True anomaly
101.25033°
Mean anomaly
101.2285°
Eccentric anomaly
101.23941°
Mean motion
3.81732 °/min
Orbital period
94.31 mins
BSTAR
0.000014617
Loading maneuver chart data...
Computing Atmospheric mass density...
Loading historical data...
Loading historical data...
Loading historical data...
Loading historical data...
Loading historical data...
Loading historical data...
Loading historical data...

Documentation

Showing up to 5 results
|